When you browse on this site, cookies collect data to enhance your experience and personalize the content and advertising you see.
Visit our Privacy Policy to learn more. By continuing to use the site, you agree to this use of cookies and data.
  • In Germany
  • List of Countries
  • For 7 days
  • Water Temperature
  • Weather Map
  • Weather Widgets
  • user-avatar
    Login

    Hourly Weather Hodmezovasarhely

    Today, 23 February, Sunday

    Time Temperature Precipitation Wind Pressure Humidity
    00:00 +4°C° 0 mm 4 mps 763 mmHg 64%
    01:00 +3°C° 0 mm 5 mps 762 mmHg 64%
    02:00 +2°C° 0 mm 5 mps 761 mmHg 64%
    03:00 +3°C° 0 mm 4 mps 761 mmHg 64%
    04:00 +3°C° 0 mm 4 mps 760 mmHg 64%
    05:00 +3°C° 0 mm 4 mps 760 mmHg 64%
    06:00 +3°C° 0 mm 3 mps 761 mmHg 64%
    07:00 +4°C° 0 mm 2 mps 760 mmHg 65%
    08:00 +4°C° 0 mm 3 mps 760 mmHg 63%
    09:00 +5°C° 0 mm 3 mps 760 mmHg 61%
    10:00 +8°C° 0 mm 3 mps 760 mmHg 60%
    11:00 +9°C° 0 mm 3 mps 759 mmHg 59%
    12:00 +11°C° 0 mm 3 mps 759 mmHg 59%
    13:00 +12°C° 0 mm 3 mps 758 mmHg 58%
    14:00 +12°C° 0 mm 3 mps 757 mmHg 59%
    15:00 +12°C° 0 mm 4 mps 756 mmHg 59%
    16:00 +12°C° 0 mm 4 mps 755 mmHg 60%
    17:00 +12°C° 0 mm 5 mps 755 mmHg 58%
    18:00 +10°C° 0 mm 5 mps 755 mmHg 57%
    19:00 +10°C° 0 mm 5 mps 754 mmHg 55%
    20:00 +9°C° 0 mm 5 mps 753 mmHg 57%
    21:00 +9°C° 0 mm 5 mps 753 mmHg 58%
    22:00 +9°C° 0 mm 5 mps 752 mmHg 59%
    23:00 +9°C° 0 mm 5 mps 752 mmHg 60%

    Tomorrow, 24 February, Monday

    Time Temperature Precipitation Wind Pressure Humidity
    00:00 +9°C° 0 mm 5 mps 751 mmHg 62%
    01:00 +9°C° 0 mm 5 mps 751 mmHg 63%
    02:00 +9°C° 0.4 mm 6 mps 751 mmHg 67%
    03:00 +9°C° 0.4 mm 7 mps 752 mmHg 70%
    04:00 +9°C° 0.4 mm 8 mps 752 mmHg 74%
    05:00 +8°C° 0.1 mm 9 mps 753 mmHg 66%
    06:00 +7°C° 0.1 mm 9 mps 754 mmHg 57%
    07:00 +6°C° 0.1 mm 9 mps 756 mmHg 49%
    08:00 +6°C° 0 mm 9 mps 757 mmHg 48%
    09:00 +6°C° 0 mm 9 mps 758 mmHg 47%
    10:00 +6°C° 0 mm 9 mps 759 mmHg 45%
    11:00 +7°C° 0 mm 8 mps 759 mmHg 44%
    12:00 +7°C° 0 mm 8 mps 759 mmHg 43%
    13:00 +9°C° 0 mm 7 mps 759 mmHg 42%
    14:00 +9°C° 0 mm 6 mps 759 mmHg 43%
    15:00 +9°C° 0 mm 5 mps 758 mmHg 44%
    16:00 +9°C° 0 mm 5 mps 758 mmHg 44%
    17:00 +8°C° 0 mm 4 mps 758 mmHg 49%
    18:00 +7°C° 0 mm 3 mps 758 mmHg 53%
    19:00 +6°C° 0 mm 2 mps 758 mmHg 57%
    20:00 +6°C° 0 mm 2 mps 757 mmHg 58%
    21:00 +6°C° 0 mm 2 mps 757 mmHg 59%
    22:00 +4°C° 0 mm 3 mps 757 mmHg 61%
    23:00 +4°C° 0 mm 3 mps 756 mmHg 61%

    Day after tomorrow, 25 February, Tuesday

    Time Temperature Precipitation Wind Pressure Humidity
    00:00 +4°C° 0 mm 3 mps 756 mmHg 62%
    01:00 +3°C° 0 mm 3 mps 756 mmHg 62%
    02:00 +3°C° 0 mm 3 mps 755 mmHg 63%
    03:00 +3°C° 0 mm 4 mps 754 mmHg 63%
    04:00 +2°C° 0 mm 5 mps 754 mmHg 63%
    05:00 +2°C° 0 mm 5 mps 753 mmHg 64%
    06:00 +3°C° 0 mm 4 mps 753 mmHg 66%
    07:00 +3°C° 0 mm 4 mps 752 mmHg 67%
    08:00 +4°C° 0 mm 4 mps 752 mmHg 63%
    09:00 +6°C° 0 mm 4 mps 751 mmHg 59%
    10:00 +8°C° 0 mm 4 mps 751 mmHg 55%
    11:00 +10°C° 0 mm 4 mps 750 mmHg 54%
    12:00 +12°C° 0 mm 4 mps 750 mmHg 53%
    13:00 +13°C° 0 mm 4 mps 749 mmHg 52%
    14:00 +13°C° 0 mm 4 mps 748 mmHg 54%
    15:00 +13°C° 0 mm 4 mps 748 mmHg 57%
    16:00 +13°C° 0 mm 3 mps 747 mmHg 60%
    17:00 +13°C° 0 mm 4 mps 747 mmHg 61%
    18:00 +12°C° 0 mm 4 mps 747 mmHg 63%
    19:00 +11°C° 0 mm 4 mps 746 mmHg 64%
    20:00 +11°C° 0 mm 4 mps 746 mmHg 66%
    21:00 +10°C° 0 mm 5 mps 746 mmHg 68%
    22:00 +9°C° 0 mm 5 mps 745 mmHg 69%
    23:00 +9°C° 0.1 mm 5 mps 745 mmHg 69%

    26 February, Wednesday

    Time Temperature Precipitation Wind Pressure Humidity
    00:00 +9°C° 0.1 mm 5 mps 744 mmHg 69%
    01:00 +9°C° 0.1 mm 5 mps 744 mmHg 69%
    02:00 +9°C° 0.3 mm 5 mps 743 mmHg 73%
    03:00 +9°C° 0.3 mm 5 mps 743 mmHg 77%
    04:00 +10°C° 0.3 mm 4 mps 742 mmHg 80%
    05:00 +8°C° 1.2 mm 4 mps 742 mmHg 84%
    06:00 +9°C° 1.2 mm 3 mps 742 mmHg 87%
    07:00 +8°C° 1.2 mm 2 mps 742 mmHg 91%
    08:00 +8°C° 0.7 mm 2 mps 742 mmHg 89%
    09:00 +8°C° 0.7 mm 2 mps 741 mmHg 88%
    10:00 +9°C° 0.7 mm 1 mps 741 mmHg 86%
    11:00 +10°C° 0.2 mm 1 mps 741 mmHg 85%
    12:00 +10°C° 0.2 mm 1 mps 741 mmHg 83%
    13:00 +10°C° 0.2 mm 1 mps 740 mmHg 81%
    14:00 +9°C° 1 mm 1 mps 740 mmHg 83%
    15:00 +9°C° 1 mm 1 mps 739 mmHg 85%
    16:00 +7°C° 1 mm 2 mps 739 mmHg 88%
    17:00 +7°C° 0.2 mm 2 mps 739 mmHg 85%
    18:00 +7°C° 0.2 mm 3 mps 739 mmHg 83%
    19:00 +6°C° 0.2 mm 4 mps 739 mmHg 81%
    20:00 +6°C° 1 mm 4 mps 739 mmHg 80%
    21:00 +5°C° 1 mm 3 mps 740 mmHg 79%
    22:00 +5°C° 1 mm 3 mps 740 mmHg 78%
    23:00 +5°C° 0.1 mm 4 mps 740 mmHg 74%

    27 February, Thursday

    Time Temperature Precipitation Wind Pressure Humidity
    00:00 +4°C° 0.1 mm 4 mps 740 mmHg 71%
    01:00 +4°C° 0.1 mm 4 mps 740 mmHg 68%
    02:00 +2°C° 0 mm 6 mps 741 mmHg 72%
    03:00 +2°C° 0 mm 7 mps 741 mmHg 75%
    04:00 +1°C° 0 mm 8 mps 741 mmHg 79%
    05:00 +2°C° 0.2 mm 7 mps 742 mmHg 81%
    06:00 +1°C° 0.2 mm 6 mps 743 mmHg 82%
    07:00 +1°C° 0.2 mm 4 mps 743 mmHg 83%
    08:00 +2°C° 0 mm 5 mps 744 mmHg 75%
    09:00 +2°C° 0 mm 6 mps 745 mmHg 66%
    10:00 +3°C° 0 mm 7 mps 746 mmHg 57%
    11:00 +4°C° 0 mm 8 mps 746 mmHg 55%
    12:00 +5°C° 0 mm 8 mps 747 mmHg 52%
    13:00 +6°C° 0 mm 9 mps 747 mmHg 50%
    14:00 +6°C° 0 mm 8 mps 747 mmHg 50%
    15:00 +5°C° 0 mm 8 mps 748 mmHg 50%
    16:00 +5°C° 0 mm 7 mps 748 mmHg 51%
    17:00 +4°C° 0 mm 7 mps 748 mmHg 54%
    18:00 +3°C° 0 mm 6 mps 749 mmHg 57%
    19:00 +2°C° 0 mm 5 mps 750 mmHg 61%
    20:00 +2°C° 0 mm 5 mps 750 mmHg 63%
    21:00 +3°C° 0 mm 4 mps 750 mmHg 66%
    22:00 +1°C° 0 mm 4 mps 750 mmHg 68%
    23:00 +1°C° 0 mm 4 mps 750 mmHg 69%

    28 February, Friday

    Time Temperature Precipitation Wind Pressure Humidity
    00:00 +1°C° 0 mm 3 mps 750 mmHg 70%
    01:00 +1°C° 0 mm 3 mps 750 mmHg 71%
    02:00 +1°C° 0 mm 3 mps 749 mmHg 71%
    03:00 0°C° 0 mm 4 mps 749 mmHg 72%
    04:00 0°C° 0 mm 4 mps 748 mmHg 72%
    05:00 0°C° 0 mm 5 mps 748 mmHg 68%
    06:00 +1°C° 0 mm 6 mps 748 mmHg 64%
    07:00 0°C° 0 mm 7 mps 748 mmHg 61%
    08:00 +2°C° 0 mm 7 mps 748 mmHg 58%
    09:00 +4°C° 0 mm 8 mps 748 mmHg 56%
    10:00 +5°C° 0 mm 8 mps 748 mmHg 53%
    11:00 +7°C° 0 mm 8 mps 748 mmHg 54%
    12:00 +9°C° 0 mm 8 mps 748 mmHg 55%
    13:00 +10°C° 0 mm 8 mps 748 mmHg 55%
    14:00 +10°C° 0 mm 7 mps 748 mmHg 57%
    15:00 +11°C° 0 mm 6 mps 748 mmHg 59%
    16:00 +12°C° 0 mm 5 mps 748 mmHg 60%
    17:00 +11°C° 0 mm 4 mps 748 mmHg 64%
    18:00 +10°C° 0 mm 4 mps 748 mmHg 68%
    19:00 +10°C° 0 mm 4 mps 749 mmHg 72%
    20:00 +8°C° 0 mm 4 mps 749 mmHg 73%
    21:00 +9°C° 0 mm 3 mps 749 mmHg 74%
    22:00 +9°C° 0 mm 3 mps 750 mmHg 75%
    23:00 +8°C° 0 mm 4 mps 749 mmHg 73%
    Show more